Theta_e
328 328 330 331 331 333 334 334 334 335 337 338 332 331 332 332 334 336 340 342 340 337 337 337 335 335 337 336 335 336 333 335 336 338 339 338 340 340 340 342 341 341 340 340 338 334 336 336 335 337 339 338 338 336 335 331 335 335 335 335 332 331 331 334 335 332 329 327 329 330 330 333 332 333 334 331 331 332 332 329 330 331 329 331 333
324 323 328 331 331 333 334 335 335 334 336 333 328 330 331 330 331 332 336 339 339 337 335 336 335 333 332 331 332 332 329 329 330 335 337 338 340 341 341 343 342 342 340 340 340 337 334 335 335 336 338 336 338 340 339 336 334 333 334 334 334 333 331 335 335 332 327 325 324 324 327 328 331 331 330 328 329 326 326 326 326 324 323 326 330
323 324 326 331 332 331 334 335 335 335 335 329 329 331 332 332 332 333 336 335 335 334 335 334 335 334 331 328 329 331 330 334 330 333 335 334 340 340 341 340 340 338 340 340 334 334 333 333 333 335 335 336 336 336 337 337 336 334 335 332 327 330 332 333 332 332 326 326 327 323 318 319 324 328 328 328 328 328 326 324 325 322 322 323 326
322 322 323 329 331 332 333 334 335 335 335 330 330 331 331 331 332 333 333 333 335 334 332 333 332 331 330 334 331 332 331 333 335 337 334 333 334 337 342 342 339 337 337 335 336 335 334 333 333 332 336 337 337 336 336 335 336 337 335 332 331 325 328 328 332 331 330 325 318 319 319 319 313 317 321 327 326 323 325 322 323 322 323 324 325
323 324 324 327 330 331 332 334 335 334 335 333 330 331 332 332 333 332 331 334 337 335 332 330 329 329 331 333 332 331 334 335 336 333 334 331 333 335 336 338 339 336 337 335 336 334 336 335 335 335 336 337 337 337 337 336 336 336 335 332 331 327 325 327 327 329 330 331 325 318 316 314 314 318 319 322 326 322 320 320 324 320 320 323 323
324 324 324 328 329 331 332 332 333 334 335 335 334 333 333 333 333 333 333 335 336 337 334 330 331 330 330 328 330 332 329 333 331 328 328 334 327 336 333 333 334 335 335 335 335 335 336 337 337 335 335 335 335 336 337 338 337 335 333 333 331 331 329 324 324 329 330 329 331 329 326 319 316 320 319 313 324 323 323 320 319 320 321 321 321
324 325 326 328 330 331 331 332 334 334 335 336 335 334 335 335 335 335 335 336 339 340 335 333 334 332 331 330 331 332 331 333 337 335 333 329 339 335 333 341 332 334 335 336 335 335 335 335 334 334 333 334 335 336 334 335 334 332 336 335 334 333 333 326 324 325 330 329 330 330 330 328 327 320 316 317 311 317 318 316 317 319 320 320 320
324 325 326 328 330 331 330 332 333 333 335 336 336 336 335 334 334 334 334 334 334 336 339 339 336 334 335 334 334 330 329 330 332 330 333 329 332 334 330 337 334 332 337 333 334 335 337 334 333 333 333 333 333 332 334 336 335 335 334 336 335 333 331 328 326 325 325 326 329 328 327 328 328 327 324 322 315 310 309 315 317 319 320 321 319
326 325 325 329 330 330 331 330 334 334 335 335 334 333 333 333 332 333 333 333 332 334 337 335 334 336 336 332 327 326 327 329 327 330 331 335 334 341 337 329 332 333 330 334 335 333 335 333 334 335 334 334 329 328 332 331 334 333 334 334 335 333 334 331 331 327 326 326 328 326 328 327 325 326 327 325 321 311 309 310 310 317 318 320 321
326 327 327 325 324 323 328 332 332 333 335 335 335 334 332 331 331 332 332 332 333 333 335 334 335 336 334 331 325 326 327 328 328 329 330 336 332 330 334 332 330 336 337 335 335 331 333 335 333 331 332 328 328 328 331 333 333 335 335 337 335 333 333 333 331 332 329 327 330 329 326 325 324 324 324 322 320 320 309 309 311 311 309 314 319
324 324 324 324 323 324 327 329 330 333 334 333 333 333 333 332 331 331 332 332 333 332 334 332 334 333 332 329 327 326 328 329 327 327 329 332 327 331 335 333 336 330 333 334 334 332 334 335 333 332 332 332 330 328 331 330 334 335 336 335 334 332 332 331 330 331 330 328 327 328 326 324 322 320 320 320 318 314 310 310 311 310 309 312 316
323 322 321 322 321 322 325 327 330 331 332 333 332 332 333 333 333 332 332 332 332 335 334 330 333 332 332 331 328 328 327 327 326 327 327 325 328 330 333 332 330 331 331 330 333 333 335 334 334 332 332 332 331 331 331 331 335 336 334 333 332 333 332 331 331 328 328 327 328 326 326 325 325 322 321 322 319 315 312 310 308 308 308 307 313
323 322 322 322 322 321 325 327 330 331 330 331 332 332 332 333 333 331 331 334 334 335 334 332 334 331 332 331 330 330 329 328 328 328 330 328 330 330 328 330 330 328 329 329 331 334 334 334 331 330 331 331 330 328 330 332 334 334 332 330 331 330 330 329 328 327 328 327 324 327 325 323 323 323 328 323 321 320 317 308 308 310 305 304 306
323 323 324 323 325 325 327 328 329 330 330 331 332 332 331 332 333 332 332 334 336 336 334 332 333 332 333 333 332 330 330 330 329 328 331 329 329 329 331 329 329 327 328 330 333 332 331 330 330 329 331 330 329 331 330 328 329 330 330 329 329 330 330 329 328 327 326 324 324 315 316 313 313 318 318 321 320 318 316 313 309 308 307 305 306
322 321 323 325 326 327 328 328 328 329 330 330 331 331 330 330 331 331 332 334 335 335 334 333 332 333 333 334 332 330 330 330 330 330 331 329 331 330 333 332 327 328 328 329 328 328 331 331 331 330 331 332 331 330 332 330 329 324 325 328 328 328 327 325 324 322 320 319 320 318 314 313 320 315 317 320 319 325 319 313 308 305 307 310 304
321 323 325 327 327 327 327 327 327 329 329 329 329 330 330 330 332 332 331 331 333 333 333 333 332 333 333 333 333 331 329 330 327 328 331 333 333 333 331 330 328 327 328 329 329 326 327 328 329 330 330 330 329 329 327 325 325 324 323 322 320 322 322 321 318 319 321 321 320 321 317 316 318 317 317 314 318 316 316 315 315 310 306 301 305
320 322 322 323 323 325 326 327 328 328 329 329 329 329 330 330 331 331 332 333 333 333 333 334 334 333 332 333 332 330 330 328 327 329 330 332 333 332 330 326 327 327 327 330 328 329 329 328 326 326 325 323 323 323 324 323 322 322 321 320 319 319 319 318 320 319 319 318 316 317 318 316 315 318 318 318 318 319 319 324 316 314 317 305 303
320 321 322 320 321 322 325 326 327 328 328 329 330 331 332 332 332 331 332 331 332 333 333 333 333 333 332 331 329 329 329 328 328 327 330 329 328 327 326 325 326 326 327 329 327 324 324 325 325 325 325 326 326 324 320 322 322 321 320 318 319 320 319 320 320 321 322 321 319 318 317 317 319 317 319 318 318 317 316 318 315 316 314 311 310
319 318 318 319 320 320 323 323 326 328 330 328 329 329 331 332 331 331 330 331 331 332 333 333 333 333 333 331 329 328 327 327 327 328 329 326 325 326 325 324 324 326 324 324 323 322 324 323 323 323 323 321 322 323 323 319 318 316 317 318 320 318 318 318 321 321 322 322 320 319 319 319 320 319 317 318 319 321 325 317 316 317 316 315 310
316 316 318 320 320 320 321 323 323 325 326 327 329 329 328 328 329 329 331 330 331 331 332 331 332 332 332 330 327 325 324 325 325 325 326 325 324 325 324 324 324 323 325 325 322 321 320 321 321 320 320 321 321 321 319 319 318 318 319 318 318 318 316 316 318 320 319 321 319 318 319 319 321 319 318 318 316 318 319 317 317 317 316 317 314
315 316 317 320 321 322 321 322 323 324 325 326 326 326 325 325 325 328 329 328 329 329 330 331 331 332 331 329 327 327 326 324 323 323 322 324 326 326 325 325 325 325 324 324 321 320 319 318 318 318 318 320 320 321 321 319 320 319 318 316 317 316 315 318 318 318 319 319 317 317 317 319 319 319 319 322 318 316 318 319 320 316 314 316 316
315 318 319 320 322 322 321 322 321 321 321 321 322 323 322 323 323 325 326 328 327 327 330 330 331 330 330 330 328 327 325 323 323 323 322 321 322 325 328 326 325 325 325 320 319 323 320 319 316 316 318 317 319 320 321 321 318 319 320 322 319 317 315 317 318 317 317 318 319 315 317 318 318 318 317 313 314 315 313 313 315 317 313 315 315
317 318 319 320 321 321 321 321 321 321 321 323 325 325 325 326 323 323 324 325 327 327 329 330 329 329 330 330 329 326 325 325 325 325 322 319 321 322 322 325 325 323 324 325 321 321 320 318 317 317 315 317 317 320 321 319 319 320 319 321 321 316 317 318 317 315 314 317 316 315 315 317 321 317 318 318 317 316 312 312 313 314 313 313 313
319 319 320 320 320 321 320 320 320 321 323 324 325 324 326 327 326 325 326 325 325 326 328 329 329 330 331 332 327 326 326 326 326 326 323 321 320 321 321 323 322 321 319 322 322 321 323 321 320 316 316 318 319 322 320 317 318 319 319 318 317 318 318 318 317 314 313 316 316 315 316 317 317 315 316 316 316 316 317 315 313 314 316 313 315
316 317 318 319 319 320 319 320 320 321 323 324 323 324 324 324 325 324 325 326 325 327 328 327 327 327 328 329 330 328 325 325 326 326 326 325 324 322 323 320 322 322 321 323 319 321 322 321 323 318 316 317 319 322 320 320 321 321 320 320 317 316 319 319 318 318 317 316 317 318 314 317 317 316 316 315 315 316 313 317 315 313 311 315 317
313 316 317 317 318 319 320 321 321 321 322 322 322 323 323 324 324 327 325 327 326 328 327 328 328 327 327 327 328 328 327 325 327 328 327 326 324 324 324 324 320 319 324 324 318 320 316 317 320 321 318 317 317 321 321 321 322 324 322 321 322 321 321 321 321 321 318 319 318 319 320 317 317 318 318 318 318 315 316 316 314 316 313 314 318
311 312 314 316 316 317 318 320 320 320 320 321 321 321 321 323 324 324 325 325 327 327 329 327 328 327 327 326 327 328 329 330 330 330 331 327 325 326 324 322 322 321 320 322 322 319 320 318 317 319 319 318 317 317 320 321 321 322 322 322 323 322 322 323 321 322 318 321 321 321 321 321 319 319 319 319 318 318 318 317 316 316 314 314 313
311 311 311 312 313 314 317 319 318 318 320 320 321 320 319 319 321 323 325 325 325 327 326 326 327 327 327 327 330 330 330 329 330 330 330 329 329 327 326 324 324 322 321 319 319 320 319 319 317 316 317 318 318 317 317 318 318 319 320 321 322 322 320 323 322 322 324 323 323 323 322 321 321 321 320 320 320 319 318 316 319 317 316 315 314
307 308 309 310 310 313 314 315 315 316 318 319 319 319 320 320 321 321 321 323 325 324 325 328 324 325 325 325 328 329 328 327 330 329 328 328 329 327 325 324 327 327 326 322 323 321 320 317 318 318 316 317 318 318 317 316 317 318 321 322 323 322 324 321 322 321 323 323 323 322 320 317 316 312 306 310 310 316 322 318 319 317 316 315 314
305 305 305 305 305 306 306 308 310 311 313 315 317 318 319 318 321 321 318 322 324 324 323 323 323 324 325 323 324 326 325 326 328 329 327 328 325 326 327 327 325 325 327 327 326 326 322 319 318 318 318 320 319 321 317 310 312 319 321 321 324 323 323 323 322 322 322 322 321 322 321 316 313 312 307 301 301 302 306 316 316 316 317 315 314
302 302 302 303 303 304 305 305 306 307 308 309 310 311 313 317 319 319 319 321 322 321 321 322 322 323 324 323 323 322 323 323 323 325 326 327 325 326 326 325 324 326 328 328 325 322 323 324 322 319 319 322 322 322 306 304 305 309 322 323 323 323 323 322 322 321 319 319 321 321 320 318 318 315 313 303 301 299 299 299 299 300 306 314 313
301 302 302 301 301 302 302 302 303 304 304 306 307 307 308 309 311 312 314 317 319 320 321 320 321 322 321 321 322 321 321 321 323 323 324 323 324 326 325 324 326 325 324 324 324 323 321 322 322 320 320 321 322 309 300 303 303 304 312 323 322 320 320 319 318 317 317 318 319 322 322 322 321 321 324 319 306 298 297 296 295 295 294 292 298
301 301 301 301 301 301 302 302 302 302 302 303 305 305 305 307 308 312 312 312 313 312 312 313 313 314 316 324 320 320 321 320 322 323 324 324 323 324 323 324 325 327 326 323 322 323 322 322 323 321 321 321 322 298 300 300 301 303 306 314 320 320 319 318 318 316 315 315 317 317 318 322 319 317 318 320 317 308 296 294 294 294 294 294 294
300 300 300 301 301 301 301 301 301 302 302 303 304 304 305 307 307 307 309 311 310 310 310 310 311 312 312 313 314 316 318 319 320 322 323 323 324 323 325 325 326 323 321 320 320 322 323 323 323 323 322 321 321 301 298 299 301 301 302 309 320 320 319 319 317 317 316 315 317 314 312 313 318 317 318 318 319 310 305 304 304 305 303 295 292
298 299 299 300 300 300 301 301 300 301 302 302 301 303 304 304 305 305 306 307 309 308 309 310 310 310 310 311 311 312 313 316 322 322 320 321 321 323 323 322 323 323 321 319 320 320 319 320 321 321 319 318 320 303 297 297 298 299 298 304 319 321 320 319 319 318 317 318 315 314 309 307 312 318 312 305 315 312 311 311 309 309 307 305 304
297 297 298 298 298 299 299 300 300 300 299 300 300 302 302 302 303 303 303 303 305 306 306 307 307 307 308 309 309 310 311 312 313 314 317 321 323 324 323 323 322 323 323 322 322 322 320 320 320 319 317 315 319 299 296 296 296 297 297 308 316 317 317 319 318 320 317 316 317 314 310 310 316 309 297 294 298 310 314 312 310 309 304 300 296
297 298 297 298 299 299 299 300 299 299 299 300 300 301 300 301 300 301 301 302 303 304 303 304 304 305 306 306 307 308 309 310 311 312 312 314 315 317 320 324 323 322 322 321 322 322 321 320 319 318 317 317 313 296 296 298 297 296 298 309 314 314 314 315 316 319 318 317 317 318 316 316 312 305 294 295 292 300 314 311 310 307 306 302 299
297 298 298 299 299 302 302 301 300 299 300 300 300 300 299 300 300 300 301 301 302 302 303 303 303 304 305 305 306 306 307 308 309 309 310 312 313 314 315 318 319 319 319 321 322 321 320 320 319 318 319 318 315 301 296 298 297 296 301 311 312 312 312 313 313 316 316 312 307 305 315 311 306 300 290 292 292 306 312 310 309 307 306 303 300
296 297 296 296 298 299 300 299 299 299 299 300 300 300 299 300 300 300 300 300 301 302 302 302 303 303 304 303 304 305 306 307 307 309 311 310 311 311 312 313 315 318 318 319 319 320 320 318 318 318 315 317 318 308 295 296 295 295 299 311 313 313 312 312 313 314 312 307 304 302 307 305 303 296 290 291 293 305 312 311 310 307 305 303 301
295 297 298 298 299 298 298 298 298 299 300 300 300 299 299 300 301 301 301 302 302 301 302 302 302 302 303 303 303 304 305 306 306 307 309 310 310 310 310 311 313 313 313 315 317 318 318 317 318 319 319 318 317 317 305 296 296 295 296 310 314 313 311 312 313 313 308 306 302 299 296 293 291 290 291 291 292 297 313 311 309 306 305 305 304
295 295 296 297 299 298 298 299 298 298 300 301 301 300 299 299 300 301 300 301 302 302 301 301 301 301 302 302 303 303 304 304 304 305 306 307 307 308 310 310 310 311 312 314 315 317 318 319 321 320 316 314 317 317 314 296 296 295 294 296 311 309 308 311 312 309 308 305 302 299 297 292 291 291 291 292 293 294 297 303 302 300 299 300 301
297 296 296 297 297 298 298 298 299 299 299 300 299 298 299 299 299 299 300 301 301 300 301 300 301 301 301 302 302 303 304 304 304 304 303 304 306 308 308 309 309 309 309 310 312 313 315 316 317 319 318 316 314 311 317 301 295 294 294 295 305 308 302 309 309 310 306 305 301 298 295 292 290 290 291 291 292 292 293 295 292 289 288 291 299
296 296 295 295 296 296 296 298 299 299 299 299 299 298 298 298 298 299 301 300 300 300 301 301 300 300 301 301 302 302 303 304 304 304 303 303 303 304 305 306 306 307 307 308 309 310 312 314 316 315 317 317 316 313 307 301 294 293 293 294 295 299 294 309 309 308 306 302 300 297 294 291 290 290 291 291 291 291 292 291 288 289 289 288 293
296 296 296 295 296 296 297 298 299 299 299 299 299 298 298 297 298 300 300 301 300 300 300 300 300 300 300 300 300 301 302 302 302 302 302 302 302 303 304 305 305 305 305 306 306 308 309 312 313 313 315 316 314 311 302 299 296 294 294 292 291 291 294 303 306 307 303 299 296 295 292 289 290 290 290 290 291 291 290 288 289 288 289 291 297
296 296 296 296 296 296 297 298 298 299 299 299 299 298 297 297 299 301 299 299 300 300 300 299 299 299 299 299 300 300 301 301 302 302 300 300 300 301 301 301 302 302 302 303 304 305 306 308 313 313 312 313 312 309 305 298 294 295 294 292 291 291 292 297 307 309 302 299 292 289 289 289 289 289 289 289 289 288 288 288 289 288 292 296 298
297 297 296 296 296 297 297 297 298 299 299 299 299 298 297 298 300 300 299 300 299 299 298 298 298 298 298 299 299 299 299 300 300 300 300 299 299 300 300 300 300 300 301 302 303 304 304 305 310 311 310 311 312 308 305 301 297 296 295 292 291 291 293 296 299 297 291 289 289 289 289 288 289 291 295 294 292 292 289 289 288 289 296 297 297
295 296 296 296 296 296 296 296 296 298 298 299 299 299 299 299 299 299 299 299 298 298 297 297 297 297 298 298 298 298 298 298 298 298 299 299 299 299 299 298 299 299 299 299 299 299 301 304 305 308 308 310 310 308 305 303 302 302 300 295 295 293 291 291 293 291 290 291 290 291 291 290 290 291 292 291 291 290 291 293 293 293 296 297 296
296 297 296 296 296 295 295 296 296 297 298 298 298 298 298 299 299 299 299 299 298 297 296 296 297 297 297 297 297 292 295 297 298 298 297 298 298 299 299 299 299 299 299 300 301 300 300 301 304 309 310 310 309 308 306 305 304 304 302 301 299 298 300 298 295 294 294 293 293 290 291 293 293 294 293 293 292 294 293 293 296 297 295 292 292
295 296 295 295 295 295 295 296 296 297 298 298 298 298 299 299 299 299 299 298 297 296 297 296 296 296 296 297 297 297 297 297 297 297 298 298 297 298 298 298 299 299 300 298 299 300 303 307 305 307 308 307 305 307 306 300 304 299 300 302 300 300 300 298 295 292 294 293 293 294 292 293 293 290 290 289 292 293 292 294 299 298 295 294 293
295 295 296 296 296 296 296 296 296 297 297 297 298 298 299 298 299 298 298 297 296 296 295 295 296 296 296 296 296 296 296 296 296 296 296 297 293 293 294 297 296 294 293 292 293 299 304 308 301 296 297 302 304 304 295 297 297 296 296 295 296 295 295 295 291 290 292 291 290 291 291 291 291 290 290 290 291 292 290 290 289 289 292 293 291
294 294 295 295 295 295 296 295 296 297 297 297 297 298 298 298 298 298 298 297 296 295 295 295 295 295 294 295 295 295 295 296 296 295 296 295 296 297 293 292 292 292 292 291 291 292 293 295 300 299 295 289 289 289 290 294 294 294 294 293 294 293 292 291 290 291 291 291 290 290 290 290 290 291 290 291 291 291 290 290 289 290 291 288 289
Wind_Speed
8 15 14 3 12 10 9 7 6 10 8 10 17 14 13 10 5 5 3 4 4 3 4 4 4 3 3 1 0 1 2 3 4 2 2 4 3 2 3 3 3 3 4 4 6 4 2 2 1 2 2 2 3 3 6 7 4 4 2 1 3 3 3 2 1 4 4 3 3 3 2 3 2 4 0 1 2 1 3 4 7 8 9 8 4
13 11 1 7 8 11 8 7 9 11 10 16 17 11 11 10 10 4 4 4 6 6 4 4 3 2 1 3 2 4 4 3 5 4 4 5 4 1 3 1 2 3 4 4 3 5 2 3 4 2 1 1 0 2 3 7 6 4 4 3 2 1 1 0 1 2 1 2 3 2 1 2 2 1 3 2 1 5 5 6 3 6 6 4 7
13 9 9 4 9 10 7 8 9 11 13 18 15 12 10 7 5 5 4 5 6 5 4 4 3 4 3 3 8 1 5 4 6 3 4 4 3 3 3 4 1 4 3 3 6 4 3 4 4 4 4 2 1 1 2 5 5 6 5 6 1 1 2 2 1 2 3 1 1 2 2 2 1 1 1 1 1 2 4 7 6 6 8 6 5
12 12 9 4 8 7 8 9 9 9 13 14 12 12 9 7 8 7 6 5 5 6 5 4 4 2 4 7 5 7 4 4 4 3 4 5 4 4 2 2 4 3 5 3 5 4 4 4 3 3 1 1 1 2 3 5 4 2 5 6 6 4 1 1 1 2 1 4 2 1 1 0 2 0 1 1 2 3 1 5 4 6 7 7 6
12 9 8 7 10 10 10 10 9 10 11 14 12 9 6 9 9 7 6 6 6 5 3 5 5 2 6 2 5 4 2 2 2 3 3 4 3 3 3 4 2 7 5 6 6 1 3 3 2 3 2 1 1 0 1 3 4 3 3 6 5 7 5 2 4 3 5 2 1 3 2 1 1 2 2 0 1 1 5 5 3 6 5 5 8
13 12 12 10 11 10 10 11 11 10 11 12 11 10 9 8 10 9 7 6 6 5 4 5 4 6 3 4 2 1 3 2 3 2 3 1 4 3 3 4 3 4 4 9 9 8 5 3 2 3 4 3 2 1 1 0 1 3 3 5 3 4 7 6 3 3 2 1 2 2 1 0 5 2 2 3 0 3 2 6 3 4 3 6 7
10 13 13 12 12 12 11 9 9 11 10 11 12 12 12 12 11 10 9 7 7 6 7 7 7 4 5 5 4 3 3 3 2 3 4 4 2 3 3 2 4 3 3 3 3 3 4 4 3 3 4 5 3 1 1 2 3 3 2 4 3 5 4 7 7 4 1 0 1 1 1 1 3 3 2 2 3 3 6 7 8 8 9 8 8
12 14 13 12 12 12 11 12 10 12 11 11 12 10 11 10 8 8 7 8 6 4 2 5 5 4 3 3 2 4 5 3 3 4 3 4 3 2 4 1 3 4 2 2 3 3 1 3 4 5 6 5 7 6 4 2 2 2 3 2 2 4 3 4 6 5 3 2 2 1 0 0 2 4 3 1 3 4 5 7 7 8 7 6 6
14 14 15 13 9 7 7 10 9 12 11 10 10 7 7 9 9 9 6 7 8 6 3 5 6 4 2 3 5 5 4 3 3 2 3 2 1 1 2 4 6 5 4 2 2 2 1 3 2 2 2 1 7 6 4 2 1 4 4 2 2 4 3 3 2 6 5 3 4 1 1 2 3 2 1 1 1 5 5 6 4 3 4 3 5
13 14 11 9 7 9 2 3 6 8 6 9 10 8 8 8 10 10 7 7 8 8 6 6 5 4 3 4 6 4 4 3 3 3 3 0 2 3 2 4 4 2 2 3 1 4 3 2 2 3 4 5 5 6 5 3 4 1 2 2 5 5 3 2 3 2 3 3 2 2 2 2 3 1 0 0 0 1 6 6 5 5 4 1 2
14 13 12 10 8 7 8 6 6 8 8 10 10 9 8 9 10 11 9 7 7 8 7 8 5 4 5 6 5 5 4 4 4 3 3 2 2 1 1 2 2 5 3 3 3 4 3 2 2 2 3 4 2 3 3 3 2 2 3 4 4 4 3 4 3 2 3 6 6 2 3 4 4 3 3 2 3 2 6 6 6 6 4 2 1
16 13 12 11 9 7 9 9 8 8 10 10 9 8 7 7 9 10 9 9 9 7 7 8 5 6 5 5 5 5 5 4 4 3 3 3 3 2 2 2 3 3 4 3 3 3 1 1 2 4 3 2 2 3 3 4 2 1 4 4 4 4 3 3 3 3 3 3 3 6 4 3 2 3 6 6 4 4 7 6 6 7 5 3 1
14 13 12 10 10 10 10 11 9 9 9 11 12 9 8 8 9 9 7 7 8 7 7 7 5 6 6 5 5 4 4 4 3 3 2 3 2 3 3 3 3 4 4 4 1 2 1 0 3 4 3 3 4 4 4 4 2 3 4 4 4 5 5 4 4 3 2 3 2 1 2 3 4 2 1 3 4 3 6 6 8 6 6 5 3
12 12 13 12 11 11 13 10 11 11 11 11 13 13 10 10 11 11 10 8 7 8 8 7 5 6 5 5 5 4 4 4 3 3 2 3 2 2 2 4 4 4 3 3 2 2 4 4 4 4 3 3 3 2 4 4 5 5 5 5 5 4 3 2 3 3 3 3 3 5 4 4 4 4 3 5 3 3 1 3 6 5 6 7 5
10 10 9 12 12 13 11 10 10 9 10 10 11 13 13 13 13 15 14 12 10 10 9 9 7 7 6 5 5 4 4 3 4 3 2 3 2 2 2 3 5 4 4 4 5 4 3 3 3 4 3 2 2 1 2 3 4 5 4 4 4 3 4 4 4 4 5 4 3 4 6 6 3 1 3 6 1 0 3 6 6 3 2 2 4
8 11 11 10 11 11 8 9 11 9 10 8 8 9 11 12 12 12 12 11 11 11 9 8 7 7 7 6 5 5 5 4 5 3 3 2 1 2 3 4 5 5 4 3 3 4 3 3 3 3 2 1 2 2 4 5 7 5 4 6 6 5 6 6 5 4 3 4 4 5 5 4 6 7 3 6 5 7 5 7 4 2 3 6 5
9 10 8 6 8 5 6 5 6 9 8 8 8 7 8 9 10 9 9 7 6 8 8 7 7 7 7 5 4 5 4 5 5 4 3 2 2 3 4 5 5 4 3 2 3 3 2 3 4 3 4 4 4 4 4 5 6 5 6 6 7 6 6 6 4 4 4 4 5 4 4 4 5 5 6 6 6 6 5 4 1 2 3 4 3
12 12 8 5 2 3 4 3 8 7 9 9 8 5 5 4 5 8 8 9 8 8 8 7 9 8 7 6 5 5 4 5 5 4 3 3 4 5 5 5 4 3 3 2 3 4 4 4 3 3 1 1 2 3 4 4 4 4 5 5 4 4 4 3 3 3 3 4 6 7 6 6 5 4 5 5 5 6 6 5 7 5 6 5 2
12 9 6 4 4 4 4 2 3 7 6 7 8 7 6 5 7 8 9 9 8 7 6 6 6 6 5 6 6 5 5 5 5 4 3 4 4 3 4 4 4 3 3 3 3 3 3 3 3 3 3 3 3 3 3 5 5 5 4 4 4 4 5 4 3 3 3 3 4 5 4 4 3 4 4 3 3 4 2 4 5 6 6 5 6
9 5 5 6 8 10 7 4 9 10 8 9 8 7 7 7 7 9 9 8 7 7 5 5 5 6 6 6 5 6 6 6 5 5 4 4 3 3 4 3 3 3 2 2 3 3 3 3 3 3 3 3 2 3 4 4 4 3 3 4 4 5 5 4 4 4 4 3 4 4 3 2 2 3 4 5 5 4 4 5 5 4 5 4 8
10 10 9 10 9 8 7 11 12 12 11 9 9 8 8 6 7 8 9 9 8 6 6 5 5 6 6 6 6 5 6 6 6 5 5 4 4 3 3 3 2 2 3 3 3 3 3 3 3 3 3 3 3 3 3 3 3 4 4 4 4 4 4 3 4 4 4 4 5 4 3 4 4 4 2 2 2 3 3 3 2 5 4 4 3
12 12 11 10 7 10 10 5 4 7 9 9 9 6 9 7 7 7 7 8 7 7 5 5 4 6 4 5 5 5 6 5 6 5 5 5 4 3 2 2 2 3 2 3 4 3 4 3 3 3 3 3 3 3 2 3 4 3 2 3 4 4 4 4 3 4 4 4 4 4 4 5 5 2 4 1 4 3 4 4 2 3 6 2 3
12 13 14 14 12 10 10 6 6 6 6 7 6 4 4 2 4 5 6 5 5 6 6 5 5 5 4 4 5 5 5 7 6 5 5 5 4 4 3 2 2 3 3 2 3 3 3 3 4 4 4 3 3 3 3 4 3 2 2 2 4 5 4 3 4 4 4 3 5 4 4 2 2 3 1 2 3 3 6 4 6 7 5 5 5
12 11 9 10 10 8 7 8 8 7 5 6 5 5 5 3 2 4 5 5 4 4 6 6 6 5 4 2 5 4 6 6 5 4 6 5 5 4 3 3 3 4 5 4 4 3 3 3 4 4 4 3 3 3 4 4 3 3 2 4 4 4 3 2 3 4 5 3 4 4 3 2 1 1 3 3 2 2 0 1 3 4 3 3 2
14 13 11 10 11 10 9 8 7 7 6 4 5 4 5 5 3 6 5 4 5 3 2 6 8 9 6 4 3 3 5 6 5 4 6 6 5 5 4 5 4 4 3 3 4 3 3 3 3 4 4 4 3 2 3 3 4 3 3 3 4 4 3 3 2 3 6 4 3 2 4 2 1 0 2 3 1 2 4 2 2 2 4 4 1
11 13 12 11 10 10 9 8 8 8 7 7 7 7 6 4 5 5 5 5 4 2 2 3 5 6 7 6 4 4 4 5 4 3 4 5 6 5 5 5 5 4 3 3 4 3 4 3 2 2 3 3 4 2 2 3 2 2 3 3 3 3 1 2 2 3 3 4 4 1 3 4 1 0 0 1 3 3 2 4 5 6 4 3 1
11 9 9 9 11 10 11 10 9 9 8 7 7 7 8 7 6 5 7 5 2 3 2 3 3 5 5 6 4 2 3 1 1 1 1 3 3 4 4 5 4 4 5 3 3 3 3 3 5 4 4 4 4 4 3 3 3 3 2 2 3 3 1 1 2 0 4 3 2 2 3 3 3 3 0 1 2 3 4 4 3 4 5 3 0
12 12 12 12 11 10 9 11 10 9 9 8 8 7 6 6 5 3 3 4 4 3 3 3 3 5 3 4 2 2 1 2 1 1 1 0 2 3 3 3 3 4 5 5 4 3 4 3 4 5 4 5 5 5 5 5 5 5 4 4 4 4 4 2 4 1 2 1 2 2 3 3 3 1 2 1 1 0 1 0 2 3 2 2 1
14 13 11 11 11 8 8 9 9 10 10 10 8 6 5 4 6 8 9 5 5 4 2 1 5 3 4 4 2 2 3 3 1 0 1 1 1 3 3 4 3 2 3 4 4 4 4 4 4 5 5 5 5 5 5 6 5 7 6 5 4 4 2 3 3 3 3 2 3 4 5 3 6 7 8 6 6 4 2 1 1 2 2 1 1
14 14 14 14 15 16 16 14 11 9 8 11 10 9 6 5 4 5 7 5 4 3 3 4 5 4 4 5 3 2 2 2 1 1 1 0 2 3 1 2 3 3 2 2 2 2 3 4 4 4 5 5 5 4 6 13 8 6 5 5 4 3 3 3 2 2 3 3 3 4 4 7 7 7 6 5 5 6 5 3 1 2 2 2 1
15 14 15 14 14 14 14 14 14 14 13 12 11 9 7 10 12 9 8 7 6 4 4 3 2 4 4 4 2 1 1 2 1 2 0 0 2 2 2 3 4 3 2 1 2 3 3 3 3 4 4 3 5 4 8 12 7 11 6 5 4 3 4 5 5 4 4 4 3 3 2 2 2 2 2 4 5 5 5 4 3 4 4 0 0
14 14 14 14 14 13 13 13 13 13 13 12 10 10 9 9 8 7 7 7 5 5 5 4 4 5 6 7 7 5 2 3 4 4 2 2 3 3 3 3 3 2 3 3 3 3 4 4 4 5 4 4 4 7 11 9 9 11 10 7 5 5 3 3 4 4 4 3 2 4 3 3 1 1 0 2 4 8 6 5 5 5 4 6 5
13 13 12 12 12 12 12 11 12 11 11 13 11 9 8 9 9 5 7 6 6 7 8 7 7 7 4 2 4 6 12 13 6 5 3 5 5 5 4 3 3 1 1 3 3 3 4 4 3 5 7 4 3 8 11 10 11 13 14 10 6 6 6 5 4 4 3 4 4 4 2 2 3 6 6 3 4 4 6 7 7 6 6 5 4
12 12 12 11 10 10 11 11 11 11 11 10 10 10 9 8 8 9 9 7 8 8 8 8 7 6 6 6 7 6 5 4 6 6 4 4 3 3 3 3 3 2 1 3 5 5 4 3 3 4 4 4 6 3 7 11 12 12 14 10 8 6 5 6 6 6 5 4 6 6 4 2 3 4 4 3 3 5 4 4 3 2 2 3 4
11 11 11 10 11 11 10 11 11 11 10 10 11 11 9 10 9 10 9 8 8 9 8 7 7 8 8 8 8 7 6 4 1 2 3 2 3 3 5 5 3 3 5 6 6 5 5 5 4 2 3 4 2 4 11 10 10 12 10 5 4 4 5 5 6 6 5 5 6 6 5 5 4 5 2 5 5 6 5 4 3 3 3 2 4
8 9 9 10 10 10 10 11 10 11 11 11 11 11 11 11 11 11 10 12 11 9 9 7 9 9 9 8 8 7 6 6 6 5 3 2 2 2 2 3 4 4 5 5 5 5 7 7 7 6 5 7 3 11 4 4 7 5 6 6 5 2 1 1 2 3 6 5 5 6 6 5 4 6 4 9 4 3 6 5 5 4 6 4 4
9 8 9 9 9 10 10 9 9 9 10 9 10 10 10 10 11 11 11 11 11 11 11 10 10 10 10 9 8 7 6 6 7 7 7 7 7 6 3 2 2 3 5 6 6 6 6 7 8 7 6 6 3 10 16 18 16 15 10 6 5 3 2 2 1 1 2 5 6 7 7 6 6 4 5 7 5 1 4 5 5 6 5 5 3
8 8 8 7 7 7 7 7 7 8 8 7 7 8 9 8 8 8 9 9 9 9 8 7 7 7 7 7 9 8 7 6 5 6 6 6 6 5 6 4 3 2 3 3 4 6 7 8 9 8 7 5 5 9 17 17 17 16 13 9 7 7 5 5 5 4 6 3 3 5 8 8 8 5 5 7 2 2 2 5 6 6 5 5 4
8 8 7 5 4 3 5 7 8 8 6 5 4 5 5 6 7 7 7 7 7 7 8 8 7 7 8 8 6 7 6 5 5 5 4 5 5 5 6 6 6 3 4 5 5 4 7 7 7 8 9 8 5 7 13 13 13 13 12 9 8 7 6 6 7 9 6 5 3 1 11 12 10 9 9 6 5 2 1 6 6 6 6 6 5
7 7 5 5 4 5 4 2 5 5 3 3 4 4 3 1 3 6 6 5 7 6 6 6 6 7 7 7 6 7 7 6 6 6 5 5 5 6 5 5 6 6 5 5 4 3 4 6 7 8 3 5 5 6 11 17 16 17 17 8 3 2 6 9 11 9 5 5 3 4 8 15 15 12 10 9 9 8 1 4 4 2 3 5 6
7 6 3 5 4 2 3 3 3 2 1 2 2 2 3 3 3 2 4 5 5 6 7 7 7 7 7 7 7 7 8 8 7 7 6 6 6 6 6 6 6 6 6 5 6 4 3 4 5 3 7 3 5 7 7 13 14 10 6 3 3 3 3 1 1 2 4 6 6 3 4 7 13 12 12 12 13 12 11 8 7 6 3 1 2
7 6 4 2 3 4 2 3 3 2 3 3 3 4 3 5 4 4 5 6 7 8 7 8 8 8 8 8 8 8 7 7 7 7 7 7 6 6 6 7 6 6 8 8 5 5 5 6 4 4 8 10 12 15 9 9 11 14 15 15 4 1 1 4 4 2 3 6 5 3 5 6 12 13 13 14 14 14 13 9 7 8 6 10 6
5 5 6 3 2 4 2 1 2 3 3 3 3 2 3 2 2 2 3 4 4 5 5 6 6 7 8 8 7 8 7 7 7 7 8 8 8 8 8 7 8 8 9 10 9 8 7 6 6 5 4 8 8 9 15 9 11 12 13 12 9 6 1 4 7 1 2 8 7 2 3 7 13 13 14 14 14 13 10 7 9 10 8 5 1
4 5 5 3 2 3 1 2 3 3 2 1 1 1 1 2 2 1 3 4 3 3 4 5 4 5 6 6 7 8 8 7 8 9 9 9 9 8 8 7 7 7 7 8 7 7 7 7 7 6 5 6 8 7 10 12 12 17 15 13 13 10 7 7 7 4 6 10 7 4 4 9 12 13 12 12 12 10 7 8 7 7 5 2 1
3 5 4 2 2 2 1 3 2 1 1 1 1 1 2 2 1 2 3 4 4 4 4 5 6 7 6 7 6 6 7 6 7 7 8 8 9 9 9 8 8 8 9 9 9 9 9 8 5 6 5 5 8 6 5 9 15 17 14 12 12 13 11 13 9 4 10 7 8 11 10 12 13 13 13 12 10 9 8 7 6 5 4 1 2
3 4 4 3 3 2 3 3 1 2 0 2 1 2 3 2 3 3 4 4 5 5 6 7 8 8 8 9 9 8 8 7 7 7 7 8 9 9 9 8 8 8 8 8 8 9 9 9 7 6 6 5 7 6 6 5 7 10 11 14 15 16 14 13 14 11 14 17 15 13 13 14 13 9 6 4 4 4 4 4 3 2 1 4 1
4 4 4 4 3 3 3 3 2 1 1 1 2 3 3 4 5 6 6 7 8 8 8 8 8 10 9 9 9 8 7 7 8 7 7 7 7 7 8 9 9 8 8 9 10 10 10 8 8 5 7 5 4 6 6 7 8 9 7 8 11 12 17 17 13 13 14 11 12 10 9 8 7 7 8 7 6 4 3 0 1 2 3 1 6
2 4 4 3 2 3 2 2 1 2 3 4 5 5 7 7 8 8 9 9 8 8 9 9 11 10 9 9 9 8 9 8 7 7 7 7 7 6 7 8 8 9 8 8 7 9 10 11 9 1 2 5 6 6 8 9 9 10 9 8 7 10 10 10 11 11 11 11 8 8 10 6 6 6 6 3 3 2 3 3 2 3 4 5 4
3 4 3 2 2 2 2 3 3 4 5 5 6 6 7 6 7 8 8 8 8 8 9 11 10 9 9 7 7 8 8 8 8 8 8 7 7 7 8 9 10 10 8 9 11 9 9 9 8 6 2 3 6 7 9 10 12 13 13 12 11 10 11 10 13 14 10 10 9 8 7 6 6 5 5 4 5 5 4 5 5 3 6 5 3
5 4 4 2 2 3 3 3 4 4 4 5 6 6 7 7 8 8 8 8 8 8 9 10 9 8 8 8 7 8 8 8 9 8 9 9 9 10 9 8 10 14 20 18 12 10 5 2 1 3 4 3 2 2 2 15 14 14 13 12 9 10 12 13 17 20 15 11 9 9 7 7 6 5 6 5 5 5 4 4 2 3 1 4 3
4 4 4 4 3 2 3 4 4 5 6 6 7 7 7 7 8 8 8 8 9 7 7 8 7 7 7 7 8 8 8 9 9 10 10 10 9 9 12 14 13 15 17 21 14 10 2 4 5 3 3 9 10 10 11 5 14 15 14 13 14 14 16 19 19 13 9 10 9 8 7 6 6 5 5 6 5 5 5 5 3 2 2 4 1
Wind_Direction
113 48 23 106 136 129 113 113 98 93 89 84 72 68 75 80 56 97 124 128 107 79 60 57 62 34 16 3 312 227 236 206 172 164 115 69 82 32 124 123 125 132 129 135 123 174 153 119 181 174 212 215 171 186 157 164 206 155 155 78 112 124 174 208 139 113 113 79 66 77 48 5 78 23 36 155 212 126 91 95 130 150 166 156 171
79 97 197 216 138 118 117 114 111 99 98 83 88 112 125 129 152 136 27 65 58 57 71 67 48 56 279 260 264 200 209 151 81 66 57 79 85 353 86 111 111 121 134 136 134 128 113 195 162 102 253 267 168 204 152 143 162 174 170 133 91 160 132 47 56 89 38 156 150 107 107 75 42 35 317 148 170 148 125 123 136 118 103 106 122
108 139 169 176 141 132 119 107 105 107 107 101 121 133 131 136 106 102 83 73 82 79 54 61 31 29 351 322 276 113 36 43 100 98 110 91 93 115 110 105 240 128 140 116 115 120 171 233 111 143 197 177 180 191 163 137 167 171 154 105 63 353 48 26 44 27 134 92 42 124 163 146 20 6 309 37 341 10 160 153 163 139 121 127 121
139 172 141 141 120 129 123 116 115 123 122 121 123 127 132 143 139 130 123 120 102 90 112 120 101 52 325 268 27 52 74 51 58 83 93 121 100 72 79 110 146 88 61 62 94 93 150 221 139 133 220 235 178 177 176 157 143 168 156 139 151 149 197 122 272 185 133 142 133 245 99 109 132 187 144 305 140 212 205 65 42 100 118 109 94
160 148 124 141 131 137 138 127 139 138 133 125 130 135 146 141 129 123 119 110 98 114 124 114 82 16 246 23 49 65 44 54 96 73 54 86 122 126 101 91 75 112 132 97 79 62 224 213 180 123 122 267 299 323 211 167 158 187 167 146 154 164 146 137 262 162 182 246 165 135 107 77 228 141 141 276 253 101 85 102 39 59 51 96 114
167 140 145 154 144 134 143 153 145 131 126 127 131 137 137 130 126 128 126 129 136 145 142 109 156 194 142 96 121 142 134 152 91 141 184 204 94 125 116 113 93 100 137 140 153 181 159 144 146 153 149 177 193 191 242 273 205 185 184 115 156 137 122 130 230 295 201 258 310 1 315 167 154 178 125 147 349 5 68 69 103 98 130 91 78
155 131 150 153 148 150 157 147 129 126 123 123 135 143 142 138 135 136 138 136 139 143 164 178 179 167 164 174 183 170 131 83 77 50 65 89 57 81 78 101 125 108 95 110 111 138 153 159 181 188 169 158 162 165 229 195 197 194 122 133 143 145 154 130 181 222 167 179 263 280 339 27 102 125 177 160 112 56 56 62 44 53 42 53 83
151 145 154 151 150 149 152 146 143 137 135 141 141 147 145 137 124 125 137 138 125 119 196 169 144 169 179 165 145 104 98 99 70 47 43 65 73 80 123 207 107 106 112 108 154 132 161 178 188 183 181 179 162 181 196 198 183 191 145 147 183 148 152 136 152 161 212 166 177 234 56 20 74 60 105 154 124 114 70 51 55 38 43 55 67
144 143 153 150 135 112 128 151 146 146 147 141 134 136 130 129 127 134 142 134 134 151 173 135 145 170 133 98 96 107 108 114 125 120 62 57 67 349 45 75 56 56 75 82 52 107 76 32 347 348 326 189 178 155 173 161 161 128 119 141 152 89 96 132 131 135 222 160 162 151 197 112 83 81 97 121 153 132 113 98 92 70 69 47 112
136 123 107 101 104 119 87 128 153 150 128 124 130 142 148 146 140 140 151 147 144 156 162 154 157 137 124 123 129 137 142 130 108 92 105 33 61 46 42 74 103 103 72 31 30 65 74 117 28 12 27 26 34 62 71 63 77 52 132 130 96 109 107 107 98 106 121 126 19 149 110 111 98 91 169 75 322 283 130 129 136 135 113 177 155
108 115 125 133 141 129 130 170 171 148 143 146 146 151 153 152 146 147 148 142 156 160 166 153 151 143 134 140 141 140 130 118 107 125 135 119 111 124 85 110 103 98 88 54 48 69 28 82 162 100 27 10 43 99 112 116 81 99 96 86 86 96 99 101 112 114 118 126 169 130 163 164 155 174 182 198 200 139 110 137 149 115 125 134 206
118 127 142 148 148 151 148 172 175 160 157 155 144 145 148 149 146 139 140 152 161 164 149 149 154 145 136 134 128 125 132 134 144 133 154 145 144 167 108 110 103 101 99 88 65 108 151 314 33 80 62 86 79 73 73 70 60 108 86 81 84 85 99 89 74 102 103 119 127 170 164 186 172 195 189 172 197 166 134 147 125 129 139 124 140
129 138 146 156 157 159 172 177 178 174 163 158 148 149 146 143 144 140 149 161 162 156 148 151 147 142 137 127 121 131 133 129 138 144 163 122 151 126 158 119 112 130 110 105 100 114 143 355 76 83 45 35 69 74 62 81 74 48 70 66 63 67 68 86 89 89 130 106 156 169 146 155 181 200 178 186 146 140 125 144 137 140 120 138 156
133 144 149 155 160 163 173 169 183 182 169 157 153 156 156 153 151 153 159 170 163 152 151 154 155 148 131 131 134 140 124 122 137 133 131 130 150 136 160 136 129 101 111 125 174 111 62 66 58 77 79 57 37 47 108 110 101 102 100 99 88 103 112 115 94 78 52 42 49 63 64 64 33 18 3 51 101 108 135 103 101 110 156 149 163
133 148 147 150 160 171 174 182 187 184 172 171 160 155 156 159 160 161 164 170 166 156 156 160 157 142 134 146 133 133 128 136 124 113 115 103 119 166 109 102 99 98 79 66 65 67 74 63 66 53 55 84 102 53 52 119 111 85 83 100 105 95 77 60 54 56 51 49 53 65 59 30 19 6 29 360 335 130 107 111 106 122 253 138 120
134 134 151 154 163 170 180 182 184 177 177 177 170 153 159 163 164 161 156 162 167 152 155 154 148 137 138 150 149 131 137 118 106 108 99 112 122 108 90 86 88 84 81 93 79 86 90 99 110 116 109 74 69 66 52 61 80 90 91 89 90 96 98 83 72 64 48 36 44 50 54 36 23 16 34 34 357 66 69 74 96 148 117 72 71
148 130 127 177 176 175 187 192 154 155 166 171 179 170 167 160 161 145 142 147 157 148 147 151 134 139 145 153 129 123 118 118 120 109 105 88 82 68 83 85 83 87 101 99 120 124 107 84 76 70 52 61 67 71 69 69 71 68 65 64 61 57 70 81 77 72 67 73 91 94 83 70 47 24 30 21 13 41 47 73 25 138 56 114 138
143 138 161 166 48 11 324 195 152 155 165 164 174 165 148 129 139 132 132 135 143 143 144 144 147 140 143 139 121 119 112 102 99 102 90 83 63 64 82 92 96 99 110 101 75 69 84 95 94 80 95 97 91 81 86 90 90 79 80 90 101 102 97 86 82 79 53 44 59 63 58 57 48 50 29 20 29 30 36 36 44 33 67 22 172
127 124 129 145 101 63 307 313 263 161 164 164 167 155 133 125 130 127 129 124 132 132 130 137 136 128 133 123 125 120 111 108 109 105 97 89 92 94 84 78 84 93 94 100 112 114 112 104 109 98 75 69 65 77 83 81 82 91 99 104 105 98 96 95 97 91 76 72 73 75 72 72 85 86 71 54 30 16 2 39 51 54 43 40 84
74 114 153 163 157 153 226 166 216 174 165 156 153 146 126 126 130 128 116 121 126 127 128 130 119 119 125 126 131 130 127 129 128 127 119 116 105 92 92 98 107 108 136 146 138 123 128 143 117 124 124 136 125 90 104 117 126 132 113 99 115 121 118 129 134 127 107 101 103 104 101 121 135 81 53 58 51 29 29 52 61 68 46 28 70
155 168 185 170 159 158 176 200 186 172 159 156 157 150 142 133 134 126 121 124 124 130 135 123 125 117 130 135 140 135 134 132 135 140 140 131 123 117 122 131 127 143 165 174 137 149 129 114 147 143 125 106 109 115 121 133 122 110 127 150 149 137 134 116 105 114 134 109 88 84 62 36 56 97 141 105 82 75 41 55 68 78 68 27 66
184 171 164 148 173 167 184 145 125 133 141 149 144 158 148 155 151 140 132 131 128 124 117 124 112 116 136 135 134 129 136 138 140 147 131 128 131 124 114 130 159 159 205 160 154 154 151 161 147 130 123 131 128 133 131 95 87 106 128 137 137 119 108 120 120 91 65 89 117 96 60 27 9 44 23 349 139 194 167 165 172 133 102 69 358
133 130 143 155 170 162 161 169 136 123 113 104 98 109 104 131 155 165 139 128 145 136 127 121 114 134 138 136 139 140 147 142 148 146 138 140 135 132 145 158 162 169 224 207 155 164 182 166 133 143 152 147 139 128 94 91 106 114 113 91 81 89 97 103 97 111 111 72 81 90 85 53 359 34 3 335 21 355 21 2 68 53 59 43 38
97 96 108 115 127 135 134 130 127 112 110 98 100 100 95 90 93 73 95 161 119 86 138 140 125 105 103 140 141 167 142 147 146 151 150 140 140 141 162 173 193 198 197 210 135 178 189 144 145 149 144 147 127 119 129 128 141 139 116 93 98 103 112 123 135 136 113 116 87 100 92 82 27 75 330 37 329 17 120 55 86 97 81 100 40
112 112 113 118 120 119 119 120 121 116 115 101 91 85 86 92 93 122 127 98 103 95 115 143 143 140 156 170 175 171 152 154 163 159 152 150 152 157 181 188 202 208 196 156 139 195 158 162 166 154 141 140 130 147 139 151 129 141 133 114 127 143 158 147 160 119 127 116 118 120 134 125 89 27 19 338 340 0 15 334 44 128 150 115 141
95 108 105 103 107 109 108 107 107 103 90 73 65 69 84 76 96 87 110 94 119 147 132 112 124 145 145 158 182 190 167 170 169 167 169 167 164 170 182 204 198 194 170 161 170 186 175 165 161 168 143 132 135 161 154 122 138 104 115 131 122 110 137 118 72 84 95 110 147 149 128 132 152 109 183 327 23 15 19 3 21 11 49 102 50
91 84 99 100 95 99 101 93 94 100 94 89 77 71 58 45 52 77 113 140 147 128 129 146 139 131 156 154 169 139 88 79 75 318 196 170 176 186 196 207 201 190 149 197 184 177 180 175 177 187 166 158 158 175 173 150 151 173 131 166 131 137 155 161 128 151 152 132 132 167 134 139 154 172 105 76 36 27 16 11 13 0 14 77 320
100 98 100 102 91 81 101 119 111 105 105 95 85 80 74 54 14 36 48 89 81 86 111 99 112 108 90 88 89 92 94 103 81 315 279 120 156 173 237 250 229 182 162 180 197 195 177 201 177 187 181 175 177 175 178 175 177 180 177 179 166 159 177 171 148 137 65 115 172 85 32 29 14 17 175 106 80 87 116 322 6 356 353 356 12
74 67 65 77 83 91 86 89 107 111 106 105 101 87 79 65 23 16 13 22 72 71 57 103 98 97 110 121 104 117 133 126 149 66 343 22 301 225 211 245 256 209 169 189 192 199 180 201 213 183 191 177 193 177 190 185 182 179 175 168 167 172 139 112 86 93 87 70 99 87 86 92 81 59 40 76 91 90 52 56 327 281 318 306 330
89 86 76 62 53 45 41 39 41 64 92 115 129 137 133 97 101 156 150 243 92 102 87 72 85 89 95 104 105 75 34 46 21 210 166 129 329 309 289 267 258 258 206 193 248 237 218 197 224 212 194 185 188 185 191 182 194 172 169 169 146 164 153 122 109 117 104 81 77 104 118 123 118 116 117 105 96 79 68 75 42 16 38 15 329
82 78 72 67 62 56 55 53 52 47 41 31 27 57 77 133 155 184 157 154 128 100 73 68 136 157 114 107 106 166 147 116 220 273 13 93 236 293 324 313 297 309 324 292 251 270 278 269 233 238 209 194 188 175 173 173 198 172 153 134 150 145 137 151 163 161 156 167 171 128 117 117 101 129 153 174 155 121 116 108 85 74 69 83 357
82 75 71 66 62 59 56 54 53 50 45 43 35 45 37 33 35 65 56 93 96 114 140 144 152 123 128 143 151 183 240 272 228 219 157 258 251 211 224 231 268 319 320 320 289 254 256 251 264 279 258 213 189 155 160 166 177 171 145 144 136 139 148 155 155 146 152 151 137 120 149 140 161 159 276 225 163 117 122 119 101 97 95 70 86
70 69 69 65 63 58 56 54 55 51 48 38 35 45 36 22 15 18 115 94 73 63 56 43 40 37 60 121 171 166 158 187 197 250 200 209 204 204 206 201 225 212 0 323 295 268 245 257 243 229 255 253 205 159 151 151 149 153 142 146 161 164 166 180 172 178 169 160 135 132 131 193 164 191 211 204 167 128 89 106 110 100 76 86 96
65 66 64 63 59 53 49 48 46 46 44 40 32 25 16 18 20 25 18 71 80 65 49 38 35 42 34 23 37 39 35 57 123 158 216 224 197 191 195 201 174 150 216 276 283 307 324 297 284 268 277 339 354 344 160 157 157 157 162 165 181 172 183 178 181 192 187 170 148 158 163 180 173 201 219 217 176 134 129 113 133 163 125 96 105
55 47 49 51 51 49 48 42 36 34 31 32 28 16 18 24 20 21 18 22 58 62 49 34 35 24 24 16 23 25 24 26 33 152 173 192 253 211 187 208 201 180 192 218 242 261 277 281 293 345 304 258 145 149 232 191 184 182 186 187 209 180 181 193 181 195 187 158 160 168 179 190 193 172 132 73 117 143 142 147 157 178 127 97 60
55 59 52 43 45 46 40 38 33 34 31 26 21 16 16 18 19 18 14 8 11 51 43 30 24 19 13 15 8 11 9 3 1 2 334 320 253 251 217 183 190 192 194 215 229 216 221 244 254 252 257 262 199 182 139 331 260 231 201 221 227 191 172 190 185 142 157 165 167 182 189 202 175 142 135 110 97 144 155 164 162 133 95 89 70
91 67 43 36 41 38 31 41 41 32 35 24 22 11 15 16 15 10 9 13 12 22 18 14 17 4 353 0 359 357 2 359 356 343 355 1 358 349 329 316 247 220 205 197 199 203 205 228 245 245 246 249 106 158 168 197 202 202 201 217 229 243 238 233 290 221 171 183 200 197 195 173 134 106 94 93 96 53 157 158 150 122 121 109 117
80 83 89 69 36 34 29 27 41 40 34 25 28 21 16 11 14 356 2 9 10 12 8 9 4 349 338 360 333 339 344 347 343 341 352 348 339 333 323 323 292 283 275 246 200 193 194 213 226 232 218 228 150 182 185 200 202 200 195 203 202 208 216 229 233 200 212 178 137 233 199 138 125 127 116 108 112 116 186 146 130 132 140 133 142
76 87 88 63 46 69 49 35 22 37 16 22 15 53 26 6 0 345 357 352 10 11 358 357 349 349 340 339 326 327 326 328 330 324 338 325 317 322 316 313 309 281 240 241 247 190 188 214 229 231 211 203 198 187 194 203 208 206 209 215 204 199 202 218 215 212 176 146 115 355 132 126 127 132 121 121 103 87 205 141 142 158 165 161 156
93 66 58 114 136 90 42 68 65 7 312 12 1 30 11 24 345 332 324 15 13 352 342 338 344 346 331 319 316 323 335 338 327 325 320 316 313 300 295 295 300 305 300 288 255 259 185 222 233 235 220 176 207 202 188 204 205 206 205 220 216 251 240 227 219 198 168 124 78 94 95 113 117 123 123 104 77 61 73 133 134 130 160 131 143
106 110 160 126 140 109 113 102 122 147 47 354 23 359 344 12 355 313 8 3 356 351 349 340 330 319 316 321 330 331 330 325 319 312 311 302 295 288 284 287 287 289 290 282 279 271 236 211 210 202 100 182 253 257 225 195 204 190 113 9 17 41 321 39 348 293 174 134 125 104 82 109 116 115 104 91 82 74 76 82 92 96 98 210 134
116 112 77 62 112 122 79 47 61 28 34 14 35 6 9 26 355 359 358 353 346 340 332 326 323 327 331 331 327 321 316 308 300 292 284 278 274 278 283 283 281 279 279 282 280 266 250 239 217 172 177 179 212 223 239 221 171 157 174 175 148 128 253 123 90 239 187 132 123 150 134 129 108 103 96 92 88 86 85 85 91 106 86 62 64
113 108 62 8 104 94 79 78 57 49 16 16 16 6 40 21 311 327 339 315 310 297 308 313 318 317 318 314 311 312 310 308 304 301 296 287 282 278 275 275 270 265 266 269 269 264 260 245 232 230 197 170 177 212 218 192 175 153 143 131 130 128 51 79 100 89 122 99 85 64 77 114 104 100 97 97 96 91 83 95 96 74 66 51 17
88 90 58 360 40 58 63 80 62 51 18 22 3 14 40 307 288 338 255 257 268 298 297 302 297 293 289 299 306 306 305 305 306 308 307 304 300 293 285 280 280 280 281 277 278 271 252 239 230 221 187 151 154 177 191 168 156 154 157 142 117 103 98 96 73 30 72 107 121 133 117 105 96 92 89 87 88 92 108 102 78 74 61 49 339
87 95 58 354 37 33 81 70 68 83 67 46 17 303 261 272 350 291 336 332 333 319 322 321 313 310 312 304 299 297 299 301 302 304 303 302 300 300 292 284 274 268 265 263 261 261 264 265 225 206 205 178 145 151 144 165 161 163 155 130 115 111 113 117 113 97 119 121 126 119 120 101 94 90 90 88 83 86 88 85 77 55 16 329 245
62 72 50 358 12 26 65 59 57 82 109 143 236 275 295 341 321 335 330 325 317 328 330 326 320 317 315 312 307 308 303 301 309 313 309 306 306 302 295 289 289 290 289 278 267 262 262 262 249 201 197 194 148 141 139 142 158 161 151 137 128 121 114 116 118 123 122 132 131 129 115 106 102 100 94 87 96 103 98 79 51 11 265 253 257
45 63 42 358 14 15 44 42 13 4 12 31 312 297 317 345 331 327 336 338 341 336 331 325 319 315 314 310 308 304 314 311 299 290 285 281 280 286 294 299 296 284 270 271 276 282 281 281 273 207 211 209 117 129 135 152 162 159 160 140 122 116 115 111 111 121 121 128 127 129 123 111 97 88 97 95 96 95 85 41 183 203 246 35 67
25 57 24 348 359 31 24 357 353 359 6 343 336 347 346 357 351 343 344 342 334 337 329 319 315 314 309 310 308 315 311 302 302 306 304 301 298 304 306 303 304 306 322 332 343 331 306 275 267 212 167 105 133 162 154 168 177 170 166 155 140 143 137 142 132 135 139 131 124 116 107 105 105 103 102 104 131 181 200 176 204 193 118 93 98
17 31 360 341 17 346 344 344 1 352 358 346 354 349 341 346 344 349 343 336 335 330 324 316 314 310 307 309 307 305 306 307 311 308 303 302 307 312 306 305 308 312 324 326 318 314 313 344 352 3 22 147 160 184 177 182 181 179 171 160 165 160 151 146 142 135 129 127 128 125 126 134 146 146 148 159 179 193 219 202 205 153 135 139 147
15 358 318 325 14 38 8 8 350 358 350 348 342 345 345 348 345 336 333 329 332 328 321 315 313 311 307 310 311 313 313 311 307 304 304 303 300 300 292 295 303 304 304 294 280 277 269 314 88 15 2 30 14 352 268 172 174 176 182 164 150 153 145 137 144 150 143 139 149 145 151 152 163 167 169 177 184 193 177 127 81 16 8 110 134
344 327 327 28 3 3 360 0 351 355 344 348 348 340 344 336 334 333 339 336 332 324 319 313 312 310 315 320 309 303 305 306 305 306 306 304 305 302 300 296 292 295 294 297 286 228 181 97 147 127 88 78 81 52 24 196 163 161 169 160 153 143 130 136 146 141 138 142 147 146 154 158 169 170 181 190 181 160 153 140 144 181 146 118 126